Вернуться в каталог

STARLINK-6312

АктивенСвязьVLEO
NORAD 56536·PAYLOAD·🇺🇸 United States

Запущен May 14, 2023 с Cape Canaveral Space Force Station

Loading…

Ближайшие Пролёты (ближайшие 24 часа)

TLE

СвежийSource: CelesTrak SupGP

Эпоха: Sep 15, 2026, 02:04 UTC

1 56536C 23065AK  26258.08659722 -.00021417  00000+0 -77594-3 0  2582
2 56536  42.9996 237.2172 0000908 256.2531 330.0270 15.27580148    18

Отслеживайте STARLINK-6312 в реальном времени с AllMySat

Download on the App Store